Location: Poughquag
(41.6090°N, 73.6820°W)
Time: 06:00:59
(UTC-05:00)

STRAND 1 - Pass Details

Date: 01 December 2023
Orbit: 766 x 778 km, 98.4° (Epoch: 24 February)

Event Time Altitude Azimuth Distance (km) Brightness Sun altitude
Rises 06:29:34 0° 195° (SSW) 3,236 ? -6.2°
Reaches altitude 10° 06:32:11 10° 207° (SSW) 2,311 ? -5.8°
Maximum altitude 06:36:30 28° 265° (W) 1,432 ? -5.0°
Drops below altitude 10° 06:40:51 10° 323° (NW) 2,319 ? -4.3°
Sets 06:43:29 0° 335° (NNW) 3,249 ? -3.9°
